Regional Weather Roundup
Issued by NWS Cleveland, OH

Home | Current Version | Previous Version | Graphics & Text | Print | Product List | Glossary On
Versions: 1 2 3 4 5 6 7 8 9 10 11 12 13 14 15 16 17 18 19 20 21 22 23 24 25 26 27 28 29 30 31 32 33 34 35 36 37 38 39 40 41 42 43 44 45 46 47 48 49 50
000
ASUS41 KCLE 261900
RWRCLE
OHIO REGIONAL WEATHER ROUNDUP
NATIONAL WEATHER SERVICE WILMINGTON, OH
300 PM EDT WED JUL 26 2017

NOTE: "FAIR" INDICATES FEW OR NO CLOUDS BELOW 12,000 FEET WITH NO
SIGNIFICANT WEATHER AND/OR OBSTRUCTIONS TO VISIBILITY.

OHZ001>008-015>018-024>027-034-035-043-044-262000-
   NORTHWEST OHIO

CITY           SKY/WX    TMP DP  RH WIND       PRES   REMARKS
DEFIANCE       FAIR      78  61  55 S8        30.09F
FINDLAY        FAIR      79  62  56 S9        30.09F
TOLEDO EXPRESS FAIR      77  63  61 S7        30.09F
TOLEDO EXEC    FAIR      80  63  55 SW7       30.09F
LIMA           FAIR      79  62  56 S8        30.11F
$$

OHZ009>014-019>023-028>033-038-089-262000-
   NORTHEAST OHIO

CITY           SKY/WX    TMP DP  RH WIND       PRES   REMARKS
CLE-HOPKINS    CLOUDY    81  63  54 SW6       30.11F
CLE-LAKEFRONT  FAIR      76  63  64 N6        30.09F
CUY CO. ARPT   CLOUDY    79  63  57 N8        30.11F
LORAIN-ELYRIA  FAIR      78  59  51 SW8       30.11F
ASHTABULA      FAIR      77  60  55 S9        30.12F
AKRON-CANTON   PTSUNNY   81  60  48 S6        30.12F
WOOSTER        NOT AVBL
MANSFIELD      FAIR      79  62  56 S6        30.13F
YOUNGSTOWN     CLOUDY    77  60  55 VRB3      30.13F
$$

OHZ042-051>053-060>062-070>072-077>081-262000-
  SOUTHWEST OHIO

CITY           SKY/WX    TMP DP  RH WIND       PRES   REMARKS
CINC-COVINGTON PTSUNNY   84  68  58 VRB3      30.10F
CINC-LUNKEN    FAIR      83  66  56 CALM      30.09F
HAMILTON       FAIR      84  65  52 NE3       30.10F
DAYTON         NOT AVBL
WRIGHT-PAT AFB MOSUNNY   81  61  51 S7        30.11F
DAYTON GENERAL FAIR      81  62  52 CALM      30.11F
WILMINGTON     FAIR      79  64  60 CALM      30.12F
$$

OHZ036-037-039>041-045>050-054>059-063>069-073>076-082>088-262000-
  CENTRAL AND SOUTHEAST OHIO

CITY           SKY/WX    TMP DP  RH WIND       PRES   REMARKS
COLUMBUS       FAIR      79  62  56 MISG      30.11F
OSU AIRPORT    FAIR      79  62  56 S8        30.11F
BOLTON FIELD   SUNNY     79  64  61 SW5       30.13F
RICKENBACK AFB NOT AVBL
NEWARK         FAIR      79  63  57 S7        30.12F
MARION         FAIR      78  61  55 SW7       30.12F
LANCASTER      FAIR      78  63  59 NW3       30.13F
ZANESVILLE     FAIR      79  60  52 VRB3      30.13F
NEW PHILLY     FAIR      79  64  60 E3        30.12F
$$




USA.gov is the U.S. government's official web portal to all federal, state and local government web resources and services.